Regional Weather Roundup
Issued by NWS

Home | Current Version | Previous Version | Text Only | Print | Product List | Glossary Off
Versions: 1 2 3 4 5 6 7 8 9 10 11 12 13 14 15 16 17 18 19 20 21 22 23 24 25 26 27 28 29 30 31 32 33 34 35 36 37 38 39 40 41 42 43 44 45 46 47 48 49 50

000
ASUS45 KCYS 030310
RWRWY

WYOMING REGIONAL WEATHER ROUNDUP
NATIONAL WEATHER SERVICE CHEYENNE WY
900 PM MDT SAT MAY 02 2015

NOTE:  "FAIR" INDICATES FEW OR NO CLOUDS BELOW 12,000 FEET
WITH NO SIGNIFICANT WEATHER AND/OR OBSTRUCTIONS TO VISIBILITY.

WYZ001-030400-
YELLOWSTONE NATIONAL PARK

CITY           SKY/WX    TMP DP  RH WIND       PRES   REMARKS
LK YELLOWSTONE   N/A     42  29  59 CALM      29.97R
W YELLOWSTONE  NOT AVBL

$$
WYZ002>013-054>058-071-098>099-030400-
NORTHERN WYOMING

CITY           SKY/WX    TMP DP  RH WIND       PRES   REMARKS
JACKSON        NOT AVBL
CODY           FAIR      63  28  27 E5        29.82S
GREYBULL       FAIR      71  21  15 N14       29.73R
WORLAND        FAIR      66  28  24 SW9       29.73R
SHERIDAN       FAIR      53  37  54 S8        29.78R
BUFFALO        FAIR      56  30  37 NW6       29.84R
GILLETTE       FAIR      45  34  65 VRB6      29.78R
HULETT         FAIR      61  27  27 E5        29.80R
NEWCASTLE      FAIR      57  28  33 MISG      29.78S

$$
WYZ014>020-022>026-101>103-030400-
CENTRAL WYOMING

CITY           SKY/WX    TMP DP  RH WIND       PRES   REMARKS
BIG PINEY      FAIR      47  33  58 W10       30.00F
PINEDALE       FAIR      50  32  50 W9        30.00R
DUBOIS         FAIR      52  25  35 W18G26    29.91S
LANDER         FAIR      62  26  25 W13       29.85R
RIVERTON       FAIR      62  26  25 W14       29.85R
CASPER         FAIR      61  36  39 W12       29.85R
DOUGLAS        FAIR      58  39  49 NE6       29.85R

$$
WYZ021-027>030-104>119-030400-
SOUTHERN WYOMING

CITY           SKY/WX    TMP DP  RH WIND       PRES   REMARKS
EVANSTON       FAIR      54  31  41 N12       30.00R
KEMMERER       FAIR      46  32  57 N12       30.02R
FORT BRIDGER   CLEAR     54  32  43 N8        30.03R
ROCK SPRINGS   RAIN      48  41  76 W16G37    30.05R
DIXON          CLOUDY    53  39  61 NE12      30.05R
RAWLINS        FAIR      55  33  43 SW16G31   30.00R
SARATOGA       FAIR      52  34  50 SW12      30.02R
LARAMIE        FAIR      49  36  61 SW15      30.00F
CHEYENNE       FAIR      57  36  45 W22G28    29.96R
TORRINGTON     FAIR      68  37  32 W12       29.80R
PINE BLUFFS    FAIR      54  43  66 SW10      29.92R

$$



USA.gov is the U.S. government's official web portal to all federal, state and local government web resources and services.